Stations météo

Publicité
Carcassonne, France (7635): Température de l'air & dewpoint: 20.03.2017 09:00:00 - 26.03.2017 09:00:00 (CEST)Carcassonne, France (7635): Température de l'air 5cm: 20.03.2017 09:00:00 - 26.03.2017 09:00:00 (CEST)Carcassonne, France (7635): Température de l'air -20cm & Température de l'air -100cm: 20.03.2017 09:00:00 - 26.03.2017 09:00:00 (CEST)Carcassonne, France (7635): Vitesse du vent & gusts: 20.03.2017 09:00:00 - 26.03.2017 09:00:00 (CEST)Carcassonne, France (7635): Direction du vent: 20.03.2017 09:00:00 - 26.03.2017 09:00:00 (CEST)Carcassonne, France (7635): reduced air pressure: 20.03.2017 09:00:00 - 26.03.2017 09:00:00 (CEST)Carcassonne, France (7635): visibility: 20.03.2017 09:00:00 - 26.03.2017 09:00:00 (CEST)Carcassonne, France (7635): Ensoleillement: 20.03.2017 09:00:00 - 26.03.2017 09:00:00 (CEST)Carcassonne, France (7635): Quantités de précipitations: 20.03.2017 09:00:00 - 26.03.2017 09:00:00 (CEST)
Date & Time tt [°C] td [°C] tt 5cm [°C] tt -20cm [°C] tt -100cm [°C] ff [km/h] ff [knt] fx [km/h] fx [knt] dd ppp [hPa] vv [km] sd [min] rr [mm]
26.03.2017 09:00:00 - - - - - - - - - - - - - -
26.03.2017 08:00:00 3,5 2,8 -0,1 10,2 12,2 3 2 7 4 ESE 1017,9 4,5 0 0,0
26.03.2017 07:00:00 4,5 3,6 1,4 10,3 12,2 2 1 16 8 NW 1017,2 34 0 0,0
26.03.2017 06:00:00 4,5 3,9 -0,2 10,5 12,2 9 5 16 8 SSE 1017,1 36 0 0,0
26.03.2017 05:00:00 3,2 2,3 0,0 10,7 12,2 4 2 10 6 SSE 1016,9 15 0 0,0
26.03.2017 04:00:00 4,3 3,3 1,5 10,9 12,2 6 4 13 7 S 1017,7 38 0 0,0
26.03.2017 03:00:00 4,6 3,3 1,5 11,1 12,2 6 4 11 6 S 1017,5 42 0 0,0
26.03.2017 02:00:00 6,3 4,9 1,6 11,3 12,2 5 3 11 6 SSE 1017,3 20 0 0,0
26.03.2017 01:00:00 7,3 5,1 2,9 11,4 12,2 5 3 10 5 SSE 1017,0 34 0 0,0
26.03.2017 00:00:00 8,4 5,7 6,2 11,5 12,2 6 3 26 14 ESE 1016,8 47 0 0,0
25.03.2017 23:00:00 9,3 6,0 8,1 11,7 12,3 18 10 32 18 E 1016,2 47 0 0,0
25.03.2017 22:00:00 10,0 7,4 9,0 11,8 12,3 14 8 32 17 E 1015,0 36 0 0,0
25.03.2017 21:00:00 10,8 8,2 10,0 11,8 12,3 23 12 41 22 E 1013,9 35 0 0,0
25.03.2017 20:00:00 11,6 8,3 11,0 11,8 12,3 30 16 49 27 E 1013,0 41 20 0,0
25.03.2017 19:00:00 12,6 8,1 12,3 11,7 12,3 37 20 60 32 E 1012,9 51 35 0,0
25.03.2017 18:00:00 14,0 7,7 14,3 11,4 12,3 42 23 64 35 E 1012,4 27 51 0,0
25.03.2017 17:00:00 16,8 2,0 15,8 11,1 12,4 33 18 62 33 E 1011,7 30 49 0,0
25.03.2017 16:00:00 15,7 4,4 16,7 10,6 12,4 35 19 55 30 E 1011,4 47 40 0,0
25.03.2017 15:00:00 17,4 2,9 18,9 10,2 12,4 17 9 40 22 ESE 1011,0 60 60 0,0
25.03.2017 14:00:00 14,3 6,9 - - - 24 13 50 27 E 1011,1 60 - -
25.03.2017 13:00:00 11,0 8,0 9,4 9,8 12,4 24 13 45 24 E 1010,4 12 13 0,0
25.03.2017 12:00:00 9,8 7,7 8,7 9,7 12,4 24 13 45 24 E 1009,7 31 2 0,0
25.03.2017 11:00:00 9,4 7,8 8,5 9,6 12,4 20 11 35 19 ESE 1009,4 18 1 0,2
25.03.2017 10:00:00 10,4 9,2 9,8 9,6 12,5 19 10 54 29 E 1008,9 53 0 5,7
25.03.2017 09:00:00 11,0 9,9 4,5 9,8 12,5 43 23 72 39 E 1008,8 4,5 0 4,2
25.03.2017 08:00:00 4,6 4,0 4,5 10,0 12,5 13 7 27 15 NW 1010,3 2,4 0 10,5
25.03.2017 07:00:00 5,1 4,5 4,7 10,2 12,5 8 4 23 13 NW 1011,1 2,4 0 9,2
25.03.2017 06:00:00 4,8 4,1 4,5 10,3 12,5 4 2 19 11 NNW 1010,8 2,4 0 2,8
25.03.2017 05:00:00 4,6 3,9 4,2 10,4 12,5 10 5 23 12 W 1012,3 18 0 1,2
25.03.2017 04:00:00 4,4 3,7 4,1 10,5 12,5 6 3 11 6 WSW 1013,7 19 0 0,0
25.03.2017 03:00:00 4,1 3,4 4,0 10,6 12,5 3 2 11 6 SSE 1015,4 60 0 0,0
25.03.2017 02:00:00 4,2 3,5 4,0 10,7 12,5 6 3 10 5 S 1016,7 16 0 1,2
25.03.2017 01:00:00 4,2 3,3 4,0 10,8 12,5 2 1 12 6 SSE 1017,6 3,6 0 2,0
25.03.2017 00:00:00 4,4 3,4 4,1 11,0 12,5 6 3 24 13 SSW 1018,3 19 0 2,2
24.03.2017 23:00:00 5,3 4,1 4,9 11,1 12,5 13 7 23 12 WSW 1018,4 9 0 2,6
24.03.2017 22:00:00 6,1 5,1 5,7 11,3 12,5 12 6 28 15 W 1018,1 11 0 4,1
24.03.2017 21:00:00 6,4 5,3 5,9 11,4 12,6 18 10 30 16 W 1017,9 2,2 0 4,2
24.03.2017 20:00:00 6,9 5,4 6,2 11,4 12,6 21 11 34 18 W 1017,4 10 0 1,2
24.03.2017 19:00:00 7,3 6,1 6,9 11,4 12,5 16 9 24 13 W 1017,0 8 0 2,8
24.03.2017 18:00:00 7,8 6,4 7,2 11,4 12,6 13 7 23 12 WSW 1017,3 7 0 2,1
24.03.2017 17:00:00 8,5 7,1 8,2 11,3 12,6 10 6 17 9 WNW 1016,9 5 0 2,0
24.03.2017 16:00:00 9,2 7,6 9,0 11,2 12,5 5 3 15 8 NW 1017,0 4,5 0 1,6
24.03.2017 15:00:00 10,9 8,8 10,1 11,1 12,6 4 2 16 9 E 1016,7 16 0 0,8
24.03.2017 14:00:00 10,8 8,9 10,7 11,0 12,6 10 5 26 14 ENE 1016,7 8 0 0,8
24.03.2017 13:00:00 10,8 9,4 10,2 10,9 12,6 10 5 16 9 E 1016,3 13 0 0,2
24.03.2017 12:00:00 8,8 7,2 7,9 10,9 12,6 5 3 15 8 ESE 1016,3 16 0 0,0
24.03.2017 11:00:00 6,6 5,4 7,2 10,9 12,6 0 0 6 3 N 1016,6 16 0 0,0
24.03.2017 10:00:00 5,6 4,7 4,6 10,9 12,5 2 1 6 4 NNW 1016,2 16 0 0,0
24.03.2017 09:00:00 4,4 3,8 2,3 11,1 12,6 4 2 8 4 WNW 1015,8 15 0 0,0
24.03.2017 08:00:00 3,3 2,6 2,3 11,3 12,6 0 0 7 4 N 1015,2 11 0 0,0
24.03.2017 07:00:00 3,6 2,9 - - - 4 2 8 4 S 1014,6 15 - 0,0
24.03.2017 06:00:00 3,6 2,9 0,8 11,6 12,6 3 2 5 3 WNW 1014,5 14 0 0,0
24.03.2017 05:00:00 3,1 2,2 1,5 11,8 12,6 3 1 5 3 NW 1013,5 13 0 0,0
24.03.2017 04:00:00 3,0 2,0 0,5 12,0 12,6 4 2 5 3 E 1014,2 14 0 0,0
24.03.2017 03:00:00 3,7 2,4 0,9 12,2 12,6 3 2 10 6 ESE 1014,3 18 0 0,0
24.03.2017 02:00:00 5,1 3,8 1,2 12,4 12,6 6 4 10 6 ESE 1014,2 32 0 0,0
24.03.2017 01:00:00 5,4 3,1 2,8 12,6 12,6 5 3 7 4 E 1014,2 48 0 0,0
24.03.2017 00:00:00 6,6 4,9 3,2 12,8 12,6 2 1 9 5 E 1014,1 17 0 0,0
23.03.2017 23:00:00 6,2 3,7 3,7 13,0 12,6 2 1 7 4 S 1013,5 51 0 0,0
23.03.2017 22:00:00 6,8 3,0 4,0 13,1 12,6 4 2 10 5 SSW 1013,1 60 0 0,0
23.03.2017 21:00:00 9,0 3,0 7,4 13,2 12,6 6 3 13 7 W 1012,4 60 0 0,0
23.03.2017 20:00:00 10,9 2,7 10,2 13,1 12,6 10 6 24 13 W 1011,3 60 45 0,0
23.03.2017 19:00:00 12,6 2,4 12,8 12,9 12,6 14 8 22 12 W 1010,2 45 60 0,0
23.03.2017 18:00:00 13,0 2,8 15,7 12,6 12,6 16 8 27 14 W 1009,7 60 60 0,0
23.03.2017 17:00:00 12,8 4,0 15,4 12,3 12,6 18 10 31 17 WNW 1009,3 48 60 0,0
23.03.2017 16:00:00 11,6 4,3 11,5 11,9 12,6 18 10 31 17 W 1009,6 53 57 0,0
23.03.2017 15:00:00 10,2 4,8 9,1 11,9 12,6 16 8 23 13 WNW 1010,5 27 8 0,0
23.03.2017 14:00:00 8,7 6,8 6,1 11,9 12,6 11 6 18 10 NW 1011,2 57 2 0,6
23.03.2017 13:00:00 6,2 5,2 5,9 11,9 12,6 12 6 26 14 WNW 1011,5 4,5 0 1,4
23.03.2017 12:00:00 6,2 4,4 5,9 11,9 12,6 19 10 37 20 WNW 1011,1 19 0 0,0
23.03.2017 11:00:00 7,7 3,7 8,0 11,9 12,6 21 12 40 21 W 1010,4 60 0 0,0
23.03.2017 10:00:00 7,5 3,9 7,2 12,0 12,6 17 9 36 19 W 1009,8 60 0 0,0
23.03.2017 09:00:00 7,0 4,0 6,7 12,1 12,6 21 11 33 18 W 1009,2 60 0 0,0
23.03.2017 08:00:00 7,2 3,6 7,1 12,2 12,6 15 8 32 18 W 1009,0 60 0 0,0
23.03.2017 07:00:00 7,2 3,8 6,9 12,4 12,6 14 8 27 15 W 1008,0 60 0 0,0
23.03.2017 06:00:00 7,1 3,7 6,7 12,5 12,6 11 6 22 12 W 1007,8 60 0 0,0
23.03.2017 05:00:00 6,9 3,9 5,1 12,6 12,6 10 6 22 12 WSW 1008,1 60 0 0,0
23.03.2017 04:00:00 6,9 3,9 6,2 12,8 12,6 8 4 39 21 SSW 1008,1 60 0 0,0
23.03.2017 03:00:00 7,4 3,8 7,3 12,9 12,6 26 14 48 26 W 1009,0 60 0 0,0
23.03.2017 02:00:00 7,8 4,0 7,6 13,1 12,6 32 17 51 28 W 1009,2 60 0 0,0
23.03.2017 01:00:00 9,6 7,7 8,7 13,2 12,6 13 7 25 14 E 1007,3 19 0 0,0
23.03.2017 00:00:00 10,0 7,8 8,8 13,4 12,6 15 8 30 16 E 1007,3 27 0 0,0
22.03.2017 23:00:00 9,9 7,3 9,0 13,6 12,6 17 9 25 14 E 1007,7 33 0 0,0
22.03.2017 22:00:00 10,8 6,9 9,9 13,7 12,6 11 6 22 12 E 1008,2 49 0 0,0
22.03.2017 21:00:00 11,1 6,6 10,1 13,8 12,6 10 5 29 16 ESE 1008,0 58 0 0,0
22.03.2017 20:00:00 12,0 5,6 11,0 13,9 12,6 19 11 30 16 E 1007,9 60 37 0,0
22.03.2017 19:00:00 13,3 5,4 12,9 13,8 12,6 22 12 33 18 E 1008,3 60 38 0,0
22.03.2017 18:00:00 14,2 4,2 15,2 13,6 12,6 25 13 35 19 E 1008,2 45 54 0,0
22.03.2017 17:00:00 14,2 3,9 15,5 13,4 12,6 19 11 35 19 ESE 1009,0 58 36 0,0
22.03.2017 16:00:00 14,5 5,0 15,8 13,2 12,6 23 12 35 19 E 1009,2 50 0 0,0
22.03.2017 15:00:00 - - - - - - - - - - - - - -
22.03.2017 14:00:00 14,4 5,2 17,0 12,5 12,6 20 11 31 17 E 1010,4 57 20 0,0
22.03.2017 13:00:00 13,8 5,7 - - - 13 7 21 11 ENE 1011,1 45 - 0,0
22.03.2017 12:00:00 11,6 4,6 - - - 4 2 9 5 E 1012,0 60 - 0,0
22.03.2017 11:00:00 11,3 5,2 13,0 11,9 12,6 3 2 8 4 E 1012,6 54 43 0,0
22.03.2017 10:00:00 10,1 5,7 8,8 12,0 12,6 0 0 8 4 N 1013,2 49 48 0,0
22.03.2017 09:00:00 6,5 5,0 4,3 12,1 12,6 5 3 11 6 S 1013,7 35 27 0,0
22.03.2017 08:00:00 5,4 4,0 4,2 12,3 12,6 5 3 15 8 SW 1014,1 19 0 0,0
22.03.2017 07:00:00 6,5 5,0 5,8 12,4 12,6 10 5 18 10 W 1014,3 30 0 0,0
22.03.2017 06:00:00 6,7 5,0 6,1 12,6 12,6 11 6 28 15 W 1014,8 26 0 0,0
22.03.2017 05:00:00 7,2 5,5 6,8 12,7 12,6 19 10 32 18 W 1015,2 28 0 0,0
22.03.2017 04:00:00 7,4 5,7 7,0 12,8 12,5 19 10 29 16 W 1015,7 36 0 0,0
22.03.2017 03:00:00 7,7 5,8 7,4 13,0 12,6 19 10 28 15 W 1016,2 55 0 0,0
22.03.2017 02:00:00 7,6 6,1 7,1 13,2 12,5 19 10 31 17 W 1016,7 42 0 0,0
22.03.2017 01:00:00 7,7 5,8 7,0 13,4 12,6 20 11 32 17 WNW 1017,1 60 0 0,0
22.03.2017 00:00:00 7,9 5,9 7,1 13,5 12,5 19 10 35 19 W 1017,5 60 0 0,0
21.03.2017 23:00:00 8,6 6,6 7,5 13,6 12,5 18 10 42 23 W 1017,9 60 0 0,0
21.03.2017 22:00:00 9,1 7,5 8,5 13,7 12,5 27 15 50 27 W 1017,7 40 0 0,0
21.03.2017 21:00:00 10,0 8,3 9,3 13,8 12,5 31 17 49 27 WNW 1016,4 14 0 0,2
21.03.2017 20:00:00 12,2 7,3 11,9 13,8 12,5 15 8 30 16 WNW 1015,3 53 24 0,0
21.03.2017 19:00:00 13,2 6,5 13,3 13,8 12,5 20 11 31 17 WNW 1015,0 56 0 0,0
21.03.2017 18:00:00 13,2 6,5 12,9 13,7 12,5 20 11 33 18 WNW 1014,9 53 0 0,0
21.03.2017 17:00:00 13,0 6,3 13,1 13,7 12,5 23 13 35 19 WNW 1015,0 54 0 0,0
21.03.2017 16:00:00 12,4 6,4 12,6 13,7 12,5 22 12 34 18 WNW 1015,0 47 0 0,0
21.03.2017 15:00:00 12,4 6,4 12,1 13,6 12,5 20 11 33 18 WNW 1015,4 43 0 0,0
21.03.2017 14:00:00 11,9 6,2 12,1 13,4 12,5 18 10 30 16 W 1016,0 54 0 0,0
21.03.2017 13:00:00 12,5 6,7 12,9 13,3 12,4 18 10 29 16 W 1016,2 50 0 0,0
21.03.2017 12:00:00 11,6 6,5 12,6 13,3 12,5 19 10 28 15 WNW 1016,4 46 0 0,0
21.03.2017 11:00:00 11,0 6,7 10,9 13,3 12,4 18 10 30 16 W 1016,2 46 0 0,0
21.03.2017 10:00:00 10,3 7,4 10,1 13,4 12,4 15 8 29 15 W 1016,2 46 0 0,0
21.03.2017 09:00:00 9,8 6,9 9,4 13,5 12,5 19 10 30 16 W 1016,2 57 0 0,0
21.03.2017 08:00:00 9,5 6,9 9,4 13,6 12,4 15 8 26 14 W 1016,1 59 0 0,0
21.03.2017 07:00:00 9,6 7,4 9,4 13,7 12,4 14 8 31 17 W 1016,3 60 0 0,0
21.03.2017 06:00:00 9,9 8,0 9,7 13,8 12,4 17 9 36 20 W 1016,4 45 0 0,0
21.03.2017 05:00:00 10,2 8,5 9,6 13,9 12,4 18 10 30 16 WNW 1016,4 28 0 0,0
21.03.2017 04:00:00 10,3 8,7 9,6 14,1 12,4 19 11 32 18 WNW 1017,0 13 0 0,0
21.03.2017 03:00:00 11,0 8,0 10,7 14,2 12,4 21 11 37 20 WNW 1017,0 20 0 0,0
21.03.2017 02:00:00 11,9 7,6 11,7 14,4 12,4 23 13 39 21 WNW 1017,1 44 0 0,0
21.03.2017 01:00:00 12,3 7,6 11,9 14,5 12,4 18 10 35 19 WNW 1017,3 49 0 0,0
21.03.2017 00:00:00 12,4 7,5 12,2 14,7 12,4 20 11 32 17 WNW 1017,5 39 0 0,0
20.03.2017 23:00:00 12,6 7,7 12,4 14,8 12,4 21 12 42 23 WNW 1017,5 35 0 0,0
20.03.2017 22:00:00 12,9 8,0 12,7 15,0 12,4 22 12 38 21 WNW 1017,3 31 0 0,0
20.03.2017 21:00:00 13,4 8,2 12,9 15,1 12,4 22 12 35 19 WNW 1016,5 35 0 0,0
20.03.2017 20:00:00 13,7 8,1 13,0 15,1 12,4 21 12 41 22 W 1015,8 30 19 0,0
20.03.2017 19:00:00 15,0 8,0 - - - 24 13 44 24 W 1015,1 35 - 0,0
20.03.2017 18:00:00 16,0 8,5 17,6 14,7 12,3 30 16 49 27 WNW 1014,6 25 60 0,0
20.03.2017 17:00:00 16,3 8,8 18,7 14,4 12,4 27 15 50 27 W 1014,4 37 60 0,0
20.03.2017 16:00:00 16,4 9,3 - - - 24 13 41 22 W 1014,6 40 - 0,0
20.03.2017 15:00:00 15,7 8,9 17,4 13,5 12,3 23 12 39 21 W 1015,0 51 58 0,0
20.03.2017 14:00:00 14,5 9,1 16,5 13,2 12,4 21 11 35 19 W 1015,7 19 32 0,0
20.03.2017 13:00:00 13,7 8,7 16,1 12,9 12,4 19 10 36 20 W 1016,5 19 48 0,0
20.03.2017 12:00:00 12,9 8,6 13,9 12,6 12,3 22 12 33 18 W 1017,0 27 35 0,0
20.03.2017 11:00:00 12,3 8,6 12,9 12,6 12,3 21 12 35 19 W 1016,9 31 60 0,0
20.03.2017 10:00:00 11,2 8,6 - - - 16 9 31 17 W 1017,2 23 - 0,0
20.03.2017 09:00:00 - - - - - - - - - - - - - -

tt = Température de l'air
td = dewpoint
tt 5cm = Température de l'air 5cm
tt -20cm = Température de l'air -20cm
tt -100cm = Température de l'air -100cm
ff = Vitesse du vent
fx = gusts
dd = Direction du vent
ppp = reduced air pressure
vv = visibility
sd = Ensoleillement
rr = Quantités de précipitations

stations d'obs. à proximité